Location: Buchberg
(46.9333°N, 15.8500°E)
Time: 09:49:24
(UTC+00:00)

Aureole 1 Rocket - Pass Details

Date: 14 July 2020
Orbit: 377 x 1380 km, 73.9° (Epoch: 07 August)

Event Time Altitude Azimuth Distance (km) Brightness Sun altitude
Exits shadow 00:43:20 27° 167° (SSE) 1,302 4.3 -17.8°
Maximum altitude 00:45:41 52° 104° (ESE) 930 4.0 -17.6°
Drops below altitude 10° 00:51:27 10° 29° (NNE) 2,639 7.6 -17.2°
Sets 00:54:24 0° 26° (NNE) 3,763 8.9 -16.9°
